Location: Abundant Grace Fellowship
(35.0349°N, 90.0924°W)
Time: 09:39:24
(UTC+00:00)

Cosmos 1741 Rocket - Pass Details

Date: 18 January 2026
Orbit: 758 x 777 km, 74.0° (Epoch: 9 February)

Event Time Altitude Azimuth Distance (km) Brightness Sun altitude
Rises 00:02:16 0° 343° (NNW) 3,227 7.2 -10.0°
Reaches altitude 10° 00:04:39 10° 344° (NNW) 2,295 6.5 -10.5°
Maximum altitude 00:09:52 83° 72° (ENE) 768 3.9 -11.5°
Drops below altitude 10° 00:15:02 10° 161° (SSE) 2,277 6.4 -12.5°
Sets 00:17:23 0° 162° (SSE) 3,199 7.2 -13.0°
